Wind_Speed
20 21 20 20 21 16 13 13 12 12 12 12 12 11 11 11 11 10 9 8 8 8 7 6 6 6 5 5 6 6 6 6 6 6 6 7 7 8 9 9 9 9 9 8 8 8 8 8 8
20 20 21 21 15 12 12 12 12 12 12 12 12 12 12 12 12 11 10 9 8 8 8 7 6 6 5 5 5 6 6 6 6 6 6 7 8 8 8 8 9 9 9 9 9 8 8 7 7
21 21 20 17 12 11 12 12 12 12 12 12 12 12 12 12 12 11 10 9 9 8 8 7 6 6 6 5 5 5 6 6 6 7 7 7 8 8 8 7 8 9 9 8 8 8 7 7 6
21 21 19 13 11 12 12 12 12 13 12 13 13 13 13 13 13 12 10 9 9 9 9 7 7 6 6 5 5 5 5 6 7 7 7 7 7 7 7 8 7 7 8 8 8 8 7 7 6
21 21 15 13 12 11 11 11 12 13 13 13 13 14 14 13 13 12 11 10 9 10 9 8 6 6 6 6 6 6 6 6 6 6 6 7 7 7 7 7 7 6 7 7 7 7 6 6 6
21 17 11 11 11 11 12 13 13 13 13 13 14 14 14 14 13 12 12 11 11 10 9 8 7 6 6 7 7 7 7 7 7 7 7 6 7 7 7 6 6 6 7 7 7 7 6 6 5
17 14 10 10 10 11 11 13 14 14 14 14 14 14 14 14 14 13 12 12 12 11 10 8 8 7 7 7 7 7 7 7 7 7 7 7 7 8 8 7 7 6 7 7 7 6 5 6 6
14 11 9 9 9 11 11 12 13 14 15 14 14 14 14 14 14 13 12 12 12 11 10 8 9 8 7 7 7 7 7 7 7 7 7 7 6 7 8 7 7 6 6 6 6 6 6 7 6
11 9 9 7 9 10 11 12 13 14 14 14 15 15 14 14 14 14 13 12 12 11 11 9 8 8 8 7 8 7 7 7 6 6 6 6 6 6 6 6 7 7 6 6 6 6 5 6 5
8 8 8 6 8 9 11 12 12 14 14 14 14 14 15 15 14 14 14 13 12 12 11 10 9 9 9 8 8 7 7 7 6 6 6 6 6 6 6 5 6 5 5 5 6 5 5 5 5
5 6 7 6 7 9 11 12 12 14 15 15 15 14 15 15 15 15 15 14 13 13 12 11 10 10 9 8 8 8 7 7 6 6 6 6 6 6 6 5 5 5 5 5 5 5 5 5 5
4 5 5 5 7 8 9 11 12 14 15 15 15 15 15 16 15 15 15 14 13 13 12 11 10 9 9 8 8 7 7 7 6 6 5 5 6 6 6 5 4 5 6 6 5 5 4 5 4
2 3 4 5 7 8 9 10 13 14 14 15 15 15 15 15 15 15 15 14 13 12 13 12 11 10 9 8 8 7 7 7 7 7 6 5 5 6 6 5 4 4 5 5 5 5 5 4 4
2 1 2 4 6 8 8 10 12 14 14 14 14 15 15 15 15 15 15 15 14 13 13 13 12 10 9 9 8 8 8 8 8 7 7 6 6 5 5 5 5 4 4 5 4 4 4 3 2
2 1 2 3 5 6 7 9 10 12 14 14 14 15 15 15 15 15 14 15 14 14 13 12 11 10 9 9 9 9 8 8 8 7 7 7 7 6 5 5 5 5 5 4 4 4 4 4 3
2 1 2 3 4 6 5 7 9 11 13 14 14 14 15 15 15 15 14 14 14 14 13 12 11 10 9 9 9 9 9 9 8 7 7 7 6 6 5 5 5 5 4 4 4 3 3 3 2
4 4 4 5 4 4 6 8 9 10 12 13 13 14 14 14 14 14 14 14 13 14 14 12 12 11 10 10 9 9 10 10 9 8 7 6 6 6 5 5 4 4 4 3 3 4 3 2 2
7 6 6 6 5 3 4 8 9 8 10 12 13 13 13 13 14 13 13 13 13 13 13 13 12 11 11 10 10 10 10 10 9 8 7 7 6 6 5 5 5 4 4 3 3 4 3 3 2
9 8 8 8 7 6 4 7 9 8 9 10 12 12 12 13 13 13 12 12 12 12 12 12 12 12 12 11 10 10 10 10 9 8 7 7 6 6 6 5 5 5 4 4 4 4 4 4 4
11 9 8 9 10 7 4 6 9 7 9 10 11 11 12 12 12 13 13 12 12 12 11 11 11 11 11 11 11 11 11 10 10 9 8 8 7 7 6 6 5 5 5 4 4 5 5 6 6
14 12 10 11 11 7 5 7 10 8 9 9 10 10 10 11 12 12 12 12 11 11 11 10 10 10 10 10 10 10 10 10 10 9 8 7 7 7 6 6 6 6 6 6 6 6 6 6 7
16 14 12 11 11 9 8 10 13 10 7 8 8 9 9 10 11 11 10 11 11 11 10 9 9 9 9 9 9 10 9 9 9 9 8 8 7 7 6 6 6 7 7 7 7 7 8 8 8
18 15 14 13 12 11 10 11 14 13 11 9 7 7 8 9 10 10 10 10 10 10 10 10 9 8 8 9 9 9 9 9 9 9 9 8 8 8 8 7 7 8 8 8 8 8 9 9 10
20 18 15 14 13 15 12 12 15 15 13 11 7 7 8 8 8 9 9 9 10 10 9 9 10 10 9 9 9 9 10 10 9 9 9 9 9 9 9 8 8 9 9 10 10 9 10 10 10
22 19 17 16 15 15 13 15 17 16 14 12 10 8 8 8 8 8 9 9 9 9 9 9 9 9 10 10 10 10 10 10 10 11 10 11 11 11 10 10 10 10 10 11 11 11 11 11 11
24 22 20 18 14 12 14 17 17 18 17 15 13 11 10 9 9 9 9 9 9 9 9 9 9 9 9 10 10 10 10 11 11 12 12 12 12 12 12 11 11 10 10 10 11 11 11 11 11
24 24 21 19 17 16 16 18 18 18 17 16 14 11 11 12 11 10 10 9 9 9 9 9 9 9 10 10 11 10 10 10 11 12 13 14 13 12 12 11 11 11 11 11 11 12 12 12 13
26 23 22 22 20 19 18 18 18 18 17 17 16 13 12 12 12 12 12 11 10 9 10 10 9 9 10 10 11 12 11 11 12 13 13 13 13 13 12 11 12 12 13 13 14 14 14 14 14
26 26 25 22 22 20 18 17 17 19 18 17 16 15 15 14 13 14 13 12 11 11 10 11 10 10 10 11 11 12 12 12 13 13 13 13 13 13 13 13 13 14 14 15 15 16 16 16 16
25 26 26 26 26 23 20 20 19 19 19 18 18 17 17 15 14 14 14 14 13 11 11 11 11 11 12 12 12 13 13 13 13 13 13 14 14 14 14 15 15 16 16 17 17 18 17 17 17
Wind_Direction
68 65 62 57 50 45 46 48 49 48 49 47 44 43 44 46 46 48 48 47 51 52 55 66 72 74 86 93 107 111 104 100 99 101 101 106 119 122 120 123 126 128 131 135 139 145 143 141 143
68 62 59 54 50 38 42 44 46 48 48 46 43 41 41 44 44 44 44 46 48 49 56 59 72 87 93 96 104 105 100 95 97 96 104 108 114 121 120 121 126 130 135 135 139 143 145 146 148
66 60 57 48 40 35 39 39 41 44 44 44 41 40 41 42 42 40 40 43 50 52 57 61 74 82 83 98 100 102 94 89 94 101 107 111 116 121 120 121 126 130 135 135 136 140 143 144 139
67 61 53 46 38 40 39 37 40 40 41 40 40 39 39 42 43 41 42 47 56 57 57 61 68 72 75 81 87 84 86 87 89 97 106 111 114 118 117 119 121 129 138 136 139 142 140 139 137
68 61 43 35 36 38 40 38 39 39 40 39 39 39 40 42 43 45 49 54 57 56 56 60 70 69 72 72 78 82 84 88 88 92 104 113 116 116 119 120 118 123 128 133 138 140 138 140 142
71 61 37 29 34 36 38 40 41 39 39 39 40 41 42 43 43 47 48 50 51 48 54 60 66 73 77 75 73 79 83 82 87 87 96 111 119 117 121 120 117 115 122 127 131 133 135 138 143
73 69 43 26 29 35 39 39 41 39 38 39 40 43 44 43 42 45 49 49 48 50 56 59 62 74 76 78 78 79 80 81 84 86 93 106 112 116 118 119 120 120 125 126 132 131 132 144 143
71 68 53 25 26 34 39 40 39 36 36 37 39 41 42 41 40 44 50 51 51 52 55 62 67 73 76 74 75 77 80 81 86 90 91 100 106 114 113 116 121 128 127 126 131 128 135 137 133
67 64 63 36 30 35 33 38 39 37 35 37 39 40 39 39 40 44 50 52 53 51 51 52 59 68 74 75 73 72 72 80 84 88 88 94 100 109 113 112 117 124 121 124 127 129 132 139 139
52 56 58 38 31 39 34 40 40 36 37 37 38 38 38 38 41 44 49 50 51 47 46 49 58 64 66 70 69 70 75 78 81 86 90 95 101 106 106 111 113 112 113 118 119 125 127 127 135
50 50 47 43 40 37 37 40 38 34 35 36 37 37 38 39 42 44 47 49 49 46 43 47 56 63 66 66 67 66 69 65 72 86 93 97 100 103 106 114 112 105 109 114 109 110 122 116 122
54 46 48 42 43 37 37 36 35 32 31 33 35 36 37 38 42 41 44 46 46 44 42 42 50 58 61 65 66 64 66 65 70 75 85 92 102 103 99 105 102 100 103 104 107 112 123 118 119
69 52 36 48 40 34 37 33 31 30 30 32 34 35 37 39 41 40 40 43 44 44 42 41 46 55 59 63 62 60 61 61 61 63 75 79 94 95 90 79 77 96 103 100 103 98 108 120 123
111 65 41 40 33 25 31 34 27 27 30 32 33 34 36 37 39 38 39 41 42 41 42 44 50 55 59 61 60 55 56 59 59 61 68 74 82 82 75 73 78 92 98 99 103 101 92 103 108
122 64 5 5 12 18 16 23 26 26 26 28 30 33 35 36 36 36 37 38 39 41 44 47 48 51 53 54 55 53 53 56 59 63 68 76 76 71 75 70 73 82 85 88 87 86 78 75 76
155 241 304 308 337 351 359 0 18 24 22 23 28 31 33 33 32 34 36 38 39 41 43 46 46 46 47 48 48 48 49 49 51 56 62 72 73 75 68 66 70 72 69 73 77 77 61 58 46
232 239 263 290 301 325 346 341 2 17 15 17 22 27 31 33 32 34 38 38 41 42 42 43 43 44 44 43 43 45 47 48 50 52 54 53 58 66 61 58 63 58 49 46 44 48 36 19 19
229 230 236 260 282 293 326 325 348 11 12 12 17 23 26 31 32 32 37 38 39 41 42 42 44 44 44 43 43 45 47 47 47 47 51 49 47 48 50 45 47 43 30 18 17 18 8 345 333
224 240 239 244 258 272 289 310 326 359 4 6 12 17 21 25 28 29 31 35 35 36 38 41 43 45 44 42 43 45 47 46 45 46 47 49 46 40 34 30 29 29 24 20 9 349 333 324 319
222 238 248 262 270 268 270 299 306 333 350 356 2 7 14 19 22 23 24 27 32 33 34 37 39 41 43 42 43 43 42 40 40 41 39 39 35 28 24 22 16 10 9 2 351 336 322 310 308
220 224 234 253 269 271 269 278 288 316 331 340 349 357 7 12 16 19 20 20 23 25 27 31 34 35 36 36 36 36 33 29 26 26 25 24 20 14 8 7 3 355 350 344 335 324 312 303 304
223 225 232 245 255 267 264 269 279 292 296 314 333 347 357 6 8 11 15 15 16 15 14 19 24 27 28 25 23 23 21 20 19 18 13 6 0 357 356 349 341 336 332 327 322 315 306 304 303
223 225 231 239 249 253 256 260 271 277 279 291 309 329 337 352 358 3 8 10 11 10 13 16 16 15 15 15 14 13 12 8 7 6 3 357 351 347 346 341 329 323 320 316 312 310 306 306 305
223 226 231 234 241 247 252 261 266 270 283 293 301 314 322 332 345 353 357 2 3 5 10 13 14 12 8 4 2 3 1 359 357 357 356 352 347 344 338 331 327 322 318 314 310 312 315 315 314
222 223 232 238 240 245 249 252 263 275 280 286 295 299 307 316 323 337 345 354 358 359 2 3 5 6 5 4 358 352 352 352 352 352 348 346 342 340 336 333 329 325 324 321 315 312 314 315 316
224 220 224 233 238 252 252 247 256 264 269 278 280 286 296 303 308 317 328 342 348 349 348 350 353 355 355 355 353 351 352 352 351 351 350 347 344 343 339 336 334 331 329 328 326 324 319 318 315
223 221 221 231 236 242 248 251 255 262 267 276 278 277 284 289 291 299 304 318 332 336 337 339 341 344 346 347 347 346 344 344 346 347 348 348 345 342 337 334 334 331 331 327 324 325 323 319 314
222 223 225 227 232 237 244 255 258 260 270 275 275 273 273 277 281 289 294 304 314 322 325 327 330 334 338 340 340 339 335 334 336 340 341 342 343 341 337 334 332 332 330 326 324 322 320 318 315
223 219 220 223 229 238 246 249 258 257 258 270 274 270 268 272 278 283 287 292 302 309 315 318 320 323 327 330 332 332 331 332 332 331 332 334 335 335 332 327 326 326 325 323 320 318 316 315 316
226 223 220 223 226 226 238 249 254 260 259 263 263 263 266 267 270 273 280 288 293 298 301 305 311 315 316 319 324 325 325 328 330 328 326 327 329 329 327 324 323 321 320 319 317 316 314 313 311
Height
5893 5891 5890 5887 5888 5890 5888 5886 5885 5883 5881 5880 5878 5876 5875 5874 5873 5873 5870 5868 5867 5866 5865 5864 5864 5863 5863 5863 5863 5863 5863 5863 5863 5862 5862 5863 5863 5864 5864 5865 5865 5866 5868 5869 5870 5870 5872 5873 5874
5895 5893 5891 5891 5894 5893 5891 5889 5887 5886 5884 5882 5880 5879 5877 5875 5874 5872 5870 5870 5869 5867 5866 5865 5865 5864 5864 5864 5864 5864 5864 5864 5864 5864 5864 5864 5864 5865 5866 5866 5867 5868 5869 5870 5871 5872 5873 5874 5875
5896 5894 5895 5897 5897 5896 5894 5892 5890 5888 5886 5884 5882 5881 5879 5877 5875 5873 5872 5871 5869 5868 5867 5867 5866 5866 5866 5866 5866 5866 5866 5865 5865 5865 5865 5866 5866 5867 5867 5868 5869 5870 5870 5871 5872 5873 5874 5876 5876
5899 5899 5900 5902 5900 5898 5897 5894 5892 5890 5888 5886 5885 5883 5880 5878 5877 5875 5873 5872 5871 5869 5869 5868 5868 5868 5868 5867 5867 5868 5867 5867 5867 5867 5867 5867 5868 5868 5869 5870 5870 5871 5872 5873 5874 5875 5876 5877 5878
5901 5902 5905 5904 5902 5901 5899 5897 5895 5893 5890 5888 5887 5885 5882 5880 5879 5877 5875 5874 5872 5871 5870 5870 5869 5869 5869 5869 5869 5869 5869 5869 5869 5869 5869 5869 5869 5870 5870 5871 5872 5873 5873 5874 5875 5876 5877 5878 5879
5904 5908 5910 5908 5906 5904 5902 5899 5897 5895 5893 5891 5889 5887 5885 5883 5881 5878 5877 5876 5875 5873 5872 5871 5870 5870 5871 5870 5870 5870 5870 5870 5870 5870 5870 5871 5871 5871 5872 5872 5873 5874 5874 5875 5876 5877 5878 5879 5880
5909 5912 5913 5911 5908 5906 5904 5902 5900 5898 5895 5893 5891 5890 5887 5885 5883 5881 5879 5878 5876 5875 5874 5873 5872 5872 5872 5872 5872 5872 5872 5872 5872 5871 5871 5872 5873 5873 5873 5874 5874 5875 5876 5876 5877 5878 5879 5879 5880
5914 5916 5915 5913 5911 5909 5907 5905 5902 5900 5898 5896 5894 5892 5889 5887 5885 5883 5881 5880 5879 5877 5876 5875 5875 5874 5874 5873 5873 5873 5873 5873 5873 5873 5873 5874 5874 5874 5875 5875 5875 5876 5876 5877 5878 5879 5879 5880 5881
5917 5918 5917 5916 5913 5911 5909 5907 5905 5903 5901 5898 5897 5895 5892 5890 5887 5885 5884 5882 5881 5880 5879 5877 5877 5876 5875 5875 5875 5875 5875 5874 5874 5875 5875 5875 5875 5876 5876 5876 5877 5877 5878 5878 5879 5880 5880 5881 5882
5921 5920 5919 5918 5915 5913 5911 5909 5907 5905 5903 5901 5899 5897 5894 5892 5890 5888 5886 5884 5883 5882 5880 5879 5878 5878 5878 5877 5877 5877 5877 5877 5877 5877 5877 5877 5877 5877 5878 5878 5878 5878 5879 5880 5880 5881 5881 5882 5882
5923 5921 5920 5919 5917 5915 5914 5912 5910 5908 5906 5904 5902 5899 5897 5895 5892 5890 5888 5887 5886 5884 5883 5881 5880 5880 5880 5880 5880 5879 5879 5879 5879 5879 5878 5878 5879 5879 5879 5880 5880 5880 5881 5881 5882 5882 5883 5883 5884
5925 5923 5922 5921 5919 5918 5916 5914 5912 5910 5909 5906 5904 5902 5899 5897 5895 5893 5891 5890 5888 5887 5885 5884 5882 5882 5882 5882 5882 5882 5881 5881 5881 5881 5880 5880 5881 5880 5880 5881 5882 5882 5883 5883 5883 5883 5883 5884 5885
5926 5925 5923 5922 5920 5919 5917 5916 5914 5912 5911 5908 5906 5904 5902 5900 5897 5896 5894 5892 5891 5889 5888 5886 5885 5885 5885 5884 5884 5884 5883 5883 5882 5882 5882 5883 5883 5883 5883 5883 5883 5883 5884 5884 5885 5884 5885 5886 5886
5926 5925 5924 5924 5922 5920 5919 5917 5916 5915 5913 5911 5909 5907 5904 5902 5900 5898 5897 5895 5893 5892 5891 5889 5888 5887 5887 5887 5886 5886 5885 5885 5885 5884 5884 5884 5884 5885 5885 5884 5884 5885 5885 5886 5886 5886 5886 5887 5887
5926 5926 5926 5925 5923 5922 5921 5920 5918 5917 5915 5913 5911 5909 5907 5905 5903 5901 5899 5897 5896 5895 5893 5892 5891 5890 5889 5889 5888 5888 5887 5887 5886 5886 5885 5885 5886 5886 5886 5886 5886 5886 5887 5887 5887 5887 5887 5888 5888
5926 5927 5927 5926 5925 5923 5924 5921 5920 5918 5917 5916 5913 5911 5909 5907 5905 5903 5902 5900 5898 5897 5896 5895 5894 5893 5892 5891 5891 5889 5888 5888 5888 5887 5887 5887 5887 5888 5888 5888 5888 5888 5888 5888 5888 5888 5888 5889 5889
5927 5928 5928 5927 5925 5925 5924 5922 5921 5919 5919 5917 5915 5913 5911 5909 5908 5906 5904 5902 5901 5900 5898 5897 5896 5895 5894 5894 5893 5892 5891 5890 5890 5889 5889 5889 5889 5889 5889 5889 5889 5889 5889 5889 5889 5889 5889 5889 5889
5927 5929 5929 5927 5926 5926 5924 5923 5922 5920 5920 5919 5917 5915 5913 5911 5910 5908 5906 5905 5903 5902 5901 5899 5898 5897 5897 5896 5895 5894 5893 5893 5892 5891 5891 5891 5890 5890 5891 5891 5890 5890 5890 5890 5890 5890 5889 5889 5889
5927 5928 5928 5927 5925 5926 5925 5923 5922 5921 5921 5920 5918 5917 5915 5913 5912 5910 5908 5907 5905 5904 5903 5902 5901 5900 5899 5898 5897 5896 5895 5895 5894 5893 5892 5892 5892 5892 5892 5892 5892 5891 5891 5891 5891 5890 5890 5889 5889
5925 5927 5927 5927 5925 5925 5925 5925 5923 5922 5922 5921 5920 5918 5917 5915 5913 5912 5910 5908 5907 5906 5905 5904 5903 5902 5901 5900 5899 5898 5897 5896 5896 5895 5894 5893 5893 5893 5893 5893 5893 5892 5892 5892 5891 5890 5890 5889 5889
5924 5926 5927 5926 5925 5924 5925 5925 5924 5923 5922 5922 5921 5919 5918 5917 5915 5913 5912 5910 5909 5908 5906 5905 5904 5904 5903 5902 5901 5900 5899 5898 5897 5896 5896 5895 5894 5894 5893 5893 5893 5893 5892 5891 5891 5890 5889 5889 5888
5921 5923 5925 5925 5925 5925 5926 5925 5923 5922 5922 5922 5921 5920 5919 5918 5916 5915 5913 5912 5911 5909 5908 5907 5906 5905 5904 5903 5902 5901 5900 5899 5898 5897 5896 5895 5895 5894 5893 5893 5892 5892 5891 5891 5890 5889 5888 5888 5887
5917 5920 5921 5922 5923 5923 5923 5924 5923 5919 5919 5920 5921 5920 5919 5918 5917 5916 5914 5913 5912 5910 5909 5908 5907 5906 5905 5904 5903 5902 5901 5900 5899 5898 5897 5896 5895 5894 5893 5893 5892 5891 5890 5889 5889 5888 5887 5886 5885
5913 5916 5917 5918 5920 5921 5922 5923 5920 5917 5919 5919 5919 5919 5919 5918 5917 5916 5915 5914 5912 5911 5910 5909 5908 5907 5906 5904 5903 5902 5901 5900 5899 5898 5897 5896 5895 5894 5893 5892 5891 5890 5889 5888 5887 5886 5885 5884 5883
5908 5912 5914 5915 5916 5918 5921 5921 5920 5918 5918 5918 5918 5918 5918 5918 5917 5916 5915 5914 5913 5912 5910 5909 5908 5907 5906 5905 5904 5903 5901 5900 5899 5898 5897 5896 5894 5894 5892 5891 5890 5889 5888 5887 5886 5885 5884 5883 5882
5904 5908 5911 5914 5915 5917 5917 5917 5918 5916 5916 5916 5916 5917 5917 5917 5916 5916 5915 5914 5913 5912 5911 5909 5908 5907 5906 5905 5904 5903 5901 5900 5899 5898 5896 5895 5894 5892 5891 5890 5889 5888 5887 5886 5885 5883 5882 5881 5879
5899 5902 5908 5911 5912 5915 5915 5914 5914 5914 5913 5913 5914 5915 5916 5915 5915 5915 5913 5912 5912 5911 5910 5909 5908 5907 5906 5905 5904 5902 5901 5900 5898 5897 5896 5894 5893 5892 5890 5889 5888 5887 5886 5884 5883 5881 5880 5878 5877
5894 5899 5903 5905 5908 5910 5912 5911 5910 5910 5911 5912 5912 5913 5914 5914 5913 5913 5912 5911 5911 5910 5909 5909 5908 5907 5906 5904 5903 5902 5900 5899 5898 5897 5895 5894 5892 5891 5890 5888 5887 5886 5884 5883 5881 5880 5878 5876 5874
5889 5893 5897 5901 5904 5907 5909 5910 5907 5906 5907 5909 5910 5910 5911 5911 5911 5910 5910 5909 5909 5908 5908 5907 5907 5906 5905 5904 5902 5901 5900 5898 5897 5896 5895 5893 5892 5890 5889 5887 5886 5884 5883 5881 5879 5877 5876 5874 5872
5884 5887 5892 5896 5898 5901 5904 5907 5904 5903 5903 5905 5906 5907 5907 5908 5908 5908 5907 5907 5906 5906 5906 5905 5905 5905 5903 5902 5901 5900 5898 5897 5895 5894 5893 5892 5890 5889 5887 5886 5884 5882 5881 5879 5877 5875 5873 5871 5868